sat.trackr.live / text

‹ back to catalog

LINGQIAO VIDEO B

NORAD 40960 · 2015-057C

PAYLOAD ACTIVE UNKNOWN

§ Identity

Operator
Country
PRC
Launch date
2015-10-07
Launch site
JSC
Launch vehicle
Mass (kg)
RCS (m²)
0.40

External: N2YO · Heavens-Above · Gunter

§ Orbital elements

Epoch: 2026-09-09T05:52:22.331424Z

Period
97.46 min
Inclination
97.6661°
Eccentricity
0.0017169
Mean motion
14.77594987 rev/d
Perigee alt
624.9 km
Apogee alt
649.0 km
Semi-major
7,015.1 km
B*
6.0983e-5
RAAN
244.0752°
Arg perigee
1.6331°
Mean anomaly
358.4934°
Rev number
58,786

§ Raw data

LINGQIAO VIDEO B1 40960U 15057C   26252.24470291  .00000388  00000+0  60983-4 0  99912 40960  97.6661 244.0752 0017169   1.6331 358.4934 14.77594987587869

JSON: /api/v1/satellites/40960 · /tle

For live sub-satellite position, see the globe view (requires WebGL).

§ Visibility from observer

Set your observer location to see the next 7 days of passes ≥ 10°. The values pass through the URL so the page stays shareable.

No JS? Fill the form by hand. The geolocation button needs JavaScript.

§ Radio — SatNOGS DB

ModeDescriptionDownlinkUplink
BPSK Telemetry 2.274 GHz

1 transmitter · refreshed weekly from db.satnogs.org